"Pseudo-MPEC" for ZTAA8B3

Created 2018 Oct 19 2:18:34 UT using Find_Orb

Click here for an explanation of pseudo-MPECs

 
 Astrometry: 
     ZTAA8B3  C2018 10 05.29407 00 33 21.57 +12 11 30.1          20.0 GVNEOCPG96
     ZTAA8B3  C2018 10 05.30535 00 33 53.65 +12 05 26.7          19.8 GVNEOCPG96
     ZTAA8B3  C2018 10 05.31097 00 34 09.45 +12 02 27.1          20.1 GVNEOCPG96
     ZTAA8B3  C2018 10 05.44064 00 40 41.64 +10 47 54.1          20.3 GVNEOCPG96
     ZTAA8B3  C2018 10 05.44082 00 40 42.19 +10 47 47.4          20.1 GVNEOCPG96
     ZTAA8B3  C2018 10 05.44099 00 40 42.75 +10 47 41.1          19.9 GVNEOCPG96
     ZTAA8B3  C2018 10 05.44117 00 40 43.30 +10 47 35.1          20.2 GVNEOCPG96
     ZTAA8B3  C2018 10 05.44550 00 40 57.30 +10 44 58.7          19.9 GVNEOCPI52
     ZTAA8B3  C2018 10 05.44652 00 41 00.62 +10 44 21.0          19.4 GVNEOCPI52
     ZTAA8B3  C2018 10 05.44858 00 41 07.32 +10 43 05.5          20.0 GVNEOCPI52

Station data:
(G96) Mt. Lemmon Survey  (N32.442754 W110.788720)  US/Arizona.  Observers B.
   M. Africano, E. J. Christensen, D. C. Fuls, A. R. Gibbs, A. D. Grauer, J.
   A. Johnson, R. A. Kowalski, S. M. Larson, G. J. Leonard, R. L. Seaman, F.
   C. Shelly. 1.5-m reflector + 10K CCD.
(I52) Steward Observatory, Mt. Lemmon Station  (N32.442547 W110.788920)
   US/Arizona.  Observers B. M. Africano, E. J. Christensen, D. C. Fuls, A.
   R. Gibbs, A. D. Grauer, J. A. Johnson, R. A. Kowalski, S. M. Larson, G. J.
   Leonard, R. L. Seaman, F. C. Shelly. 1.0-m reflector + CCD.

Orbital elements:  ZTAA8B3
   Perihelion 2018 Nov 13.576980 +/- 1.05 TT = 13:50:51 (JD 2458436.076980)
Epoch 2018 Oct  5.0 TT = JDT 2458396.5   Earth MOID: 0.0047   AutoNEOCP
M 331.42809 +/- 1.0                 (J2000 ecliptic)
n   0.72193243 +/- 0.0374           Peri.  223.67763 +/- 2.0
a   1.23066074 +/- 0.0425           Node   192.26873 +/- 0.0027
e   0.2234248 +/- 0.0348            Incl.    6.62620 +/- 0.8
P   1.37/498.65d           H 30.4   G  0.15   U 10.5  
q 0.95570058 +/- 0.00983    Q 1.50562089 +/- 0.0928
From 10 observations 2018 Oct. 5 (3.7 hr); mean residual 0".90
Residuals in arcseconds: 
181005 G96  .17+  .62-    181005 G96  .48+  .91-    181005 I52  .36-  .53+    
181005 G96  1.5+  .94-    181005 G96  .64+  1.0-    181005 I52  .55-  .37+    
181005 G96  1.8-  1.8+    181005 G96  .17+  .48-    
181005 G96  .95+  .76-    181005 I52  .40-  .97+    

Ephemerides (geocentric):
Date (UTC) HH   RA              Dec         delta   r     elong  mag " sig PA
---- -- -- --  -------------   -----------  ------ ------ -----  --- ---- ---
2018 10 19 02  09 28 51.206   -32 55 26.76  .03892 .97766  60.7 28.0 6055  84
2018 10 19 03  09 28 59.339   -32 54 58.97  .03905 .97759  60.7 28.0 6050  84
2018 10 19 04  09 29 07.426   -32 54 31.31  .03918 .97751  60.7 28.0 6045  84
2018 10 19 05  09 29 15.469   -32 54 03.77  .03932 .97744  60.7 28.0 6040  84
2018 10 19 06  09 29 23.467   -32 53 36.36  .03945 .97736  60.7 28.0 6035  84
2018 10 19 07  09 29 31.422   -32 53 09.08  .03958 .97729  60.7 28.0 6031  84
2018 10 19 08  09 29 39.332   -32 52 41.91  .03971 .97721  60.7 28.0 6026  84
2018 10 19 09  09 29 47.200   -32 52 14.87  .03985 .97714  60.6 28.0 6021  84
2018 10 19 10  09 29 55.026   -32 51 47.95  .03998 .97706  60.6 28.0 6016  84
2018 10 19 11  09 30 02.809   -32 51 21.14  .04011 .97699  60.6 28.0 6011  84
2018 10 19 12  09 30 10.551   -32 50 54.46  .04024 .97691  60.6 28.0 6007  84
2018 10 19 13  09 30 18.251   -32 50 27.90  .04038 .97684  60.6 28.0 6002  84
2018 10 19 14  09 30 25.912   -32 50 01.45  .04051 .97676  60.6 28.0 5997  84
2018 10 19 15  09 30 33.532   -32 49 35.12  .04064 .97669  60.6 28.1 5993  84
2018 10 19 16  09 30 41.112   -32 49 08.90  .04077 .97661  60.6 28.1 5988  84
2018 10 19 17  09 30 48.653   -32 48 42.80  .04090 .97654  60.6 28.1 5984  84
2018 10 19 18  09 30 56.155   -32 48 16.81  .04104 .97647  60.6 28.1 5979  84
2018 10 19 19  09 31 03.618   -32 47 50.93  .04117 .97639  60.6 28.1 5975  84
2018 10 19 20  09 31 11.044   -32 47 25.17  .04130 .97632  60.6 28.1 5970  84
2018 10 19 21  09 31 18.432   -32 46 59.51  .04143 .97625  60.6 28.1 5966  84
2018 10 19 22  09 31 25.782   -32 46 33.97  .04157 .97617  60.6 28.1 5962  84
2018 10 19 23  09 31 33.096   -32 46 08.54  .04170 .97610  60.6 28.1 5957  84
2018 10 20 00  09 31 40.374   -32 45 43.21  .04183 .97602  60.6 28.1 5953  84
2018 10 20 01  09 31 47.616   -32 45 18.00  .04196 .97595  60.6 28.1 5949  84
2018 10 20 02  09 31 54.821   -32 44 52.89  .04210 .97588  60.6 28.1 5945  84
2018 10 20 03  09 32 01.992   -32 44 27.88  .04223 .97581  60.6 28.1 5940  84
2018 10 20 04  09 32 09.128   -32 44 02.98  .04236 .97573  60.6 28.1 5936  84
2018 10 20 05  09 32 16.229   -32 43 38.19  .04249 .97566  60.6 28.1 5932  84
2018 10 20 06  09 32 23.297   -32 43 13.50  .04263 .97559  60.6 28.1 5928  84
2018 10 20 07  09 32 30.330   -32 42 48.91  .04276 .97551  60.6 28.2 5924  84
2018 10 20 08  09 32 37.331   -32 42 24.42  .04289 .97544  60.6 28.2 5920  84
2018 10 20 09  09 32 44.298   -32 42 00.04  .04302 .97537  60.6 28.2 5916  84
2018 10 20 10  09 32 51.232   -32 41 35.76  .04315 .97530  60.6 28.2 5912  84
2018 10 20 11  09 32 58.134   -32 41 11.57  .04329 .97522  60.6 28.2 5908  84
2018 10 20 12  09 33 05.005   -32 40 47.49  .04342 .97515  60.6 28.2 5904  84
2018 10 20 13  09 33 11.843   -32 40 23.50  .04355 .97508  60.6 28.2 5900  84
2018 10 20 14  09 33 18.650   -32 39 59.62  .04368 .97501  60.6 28.2 5896  84
2018 10 20 15  09 33 25.427   -32 39 35.83  .04382 .97494  60.6 28.2 5892  84
2018 10 20 16  09 33 32.172   -32 39 12.13  .04395 .97486  60.6 28.2 5888  84
2018 10 20 17  09 33 38.887   -32 38 48.53  .04408 .97479  60.6 28.2 5884  84
2018 10 20 18  09 33 45.573   -32 38 25.03  .04421 .97472  60.6 28.2 5881  84
2018 10 20 19  09 33 52.228   -32 38 01.62  .04435 .97465  60.6 28.2 5877  84
2018 10 20 20  09 33 58.854   -32 37 38.31  .04448 .97458  60.6 28.2 5873  84
2018 10 20 21  09 34 05.452   -32 37 15.09  .04461 .97451  60.6 28.2 5869  84
2018 10 20 22  09 34 12.020   -32 36 51.96  .04474 .97444  60.6 28.2 5866  84
2018 10 20 23  09 34 18.560   -32 36 28.92  .04488 .97437  60.6 28.2 5862  84
2018 10 21 00  09 34 25.071   -32 36 05.98  .04501 .97429  60.6 28.3 5858  84
2018 10 21 01  09 34 31.555   -32 35 43.12  .04514 .97422  60.6 28.3 5855  84